Overview Statistics Trail Chart Weather Telemetry Raw packets
 

This is the latest recevied weather packets stored in our database for station/object IW0HP-3. If no packets are shown the sender has not sent any weather packets the latest 10 day(s).

<< 4 5 6 7 8 9 10 >>
Time Temp. Humidity Pressure Rain* Wind** Luminosity Snow
1788428536 28.33° C 43% 1016.4 hPa - - - -
1788427331 27.78° C 44% 1016.7 hPa - - - -
1788426127 27.78° C 45% 1016.8 hPa - - - -
1788424922 27.22° C 45% 1016.6 hPa - - - -
1788423718 27.22° C 46% 1016.5 hPa - - - -
1788422513 26.67° C 46% 1016.5 hPa - - - -
1788421309 26.11° C 47% 1016.5 hPa - - - -
1788420105 26.11° C 48% 1016.5 hPa - - - -
1788418900 25.56° C 49% 1016.5 hPa - - - -
1788417696 25.56° C 49% 1016.4 hPa - - - -
1788416491 25° C 50% 1016.3 hPa - - - -
1788415287 24.44° C 52% 1016.1 hPa - - - -
1788412878 24.44° C 53% 1015.9 hPa - - - -
1788411672 24.44° C 52% 1015.8 hPa - - - -
1788410467 24.44° C 52% 1015.8 hPa - - - -
1788409263 24.44° C 53% 1015.7 hPa - - - -
1788408058 24.44° C 53% 1015.7 hPa - - - -
1788406854 24.44° C 53% 1015.6 hPa - - - -
1788405649 24.44° C 53% 1015.8 hPa - - - -
1788404445 24.44° C 53% 1015.9 hPa - - - -
1788403240 25° C 52% 1015.8 hPa - - - -
1788402035 25° C 52% 1015.9 hPa - - - -
1788400831 25° C 51% 1016.1 hPa - - - -
1788399627 25.56° C 50% 1016.1 hPa - - - -
1788398422 25.56° C 49% 1016.2 hPa - - - -

* Rain since midnight (hover to see other rain measurements)
** Current wind speed in m/s (hover to see current wind gust speed)